Location: Peebles
(55.6412°N, 3.1714°W)
Time: 06:43:52
(UTC+01:00)

IRS-1A Rocket - Visible Passes

Search period start: 26 June 2022 00:00
Search period end: 06 July 2022 00:00
Orbit: 853 x 931 km, 99.1° (Epoch: 25 June)

Date Brightness Start Highest point End Pass type
(mag) Time Alt. Az. Time Alt. Az. Time Alt. Az.
26 Jun 6.7 23:24:06 10° WSW 23:27:50 17° W 23:31:35 10° NW visible
27 Jun 6.7 23:24:17 10° WSW 23:28:00 17° W 23:31:45 10° NW visible
28 Jun 6.7 23:24:28 10° WSW 23:28:11 17° W 23:31:54 10° NW visible
29 Jun 6.7 23:24:39 10° WSW 23:28:21 17° W 23:32:04 10° NW visible
30 Jun 6.7 23:24:51 10° WSW 23:28:32 17° W 23:32:14 10° NW visible
01 Jul 6.7 23:25:01 10° WSW 23:28:42 17° W 23:32:24 10° NW visible
02 Jul 6.7 23:25:13 10° WSW 23:28:53 17° W 23:32:33 10° NW visible
03 Jul 6.7 23:25:24 10° WSW 23:29:03 17° W 23:32:43 10° NW visible
04 Jul 6.7 23:25:35 10° WSW 23:29:14 17° W 23:32:52 10° NW visible
05 Jul 6.7 23:25:47 10° WSW 23:29:24 17° W 23:33:02 10° NW visible
